[[{"header":{"parameterUnit":"m.s-1","parameterCategory":1,"la1":30.2991,"la2":30.254,"lo1":-89.0895,"lo2":-89.0444,"dy":0.0017,"dx":0.0017,"nx":28,"ny":28,"refTime":"2025-03-21T21:00:00:Z","depth":0,"parameterNumber":2,"parameterNumberName":"U-component_of_WINDS"},"data":[0,0,0,0,0,0,0,0,0,0,0,0,0,0,0,0,0,0,0,0,0,0,0,0,0,0,0,0,0,0,0,0,0,0,0,0,0,0,0,0,0,0,0,0,0,0,0,0,0,0,0,0,0,0,0,0,0,0,0.7675,0.7676,0,0.7711,0.7712,0.7712,0.7707,0.7706,0.7706,0.7705,0.774,0.7741,0.7743,0,0,0,0,0,0,0,0,0,0,0,0,0,0.7598,0.76,0.7675,0.7676,0.7676,0.7711,0.7712,0.7712,0.7707,0.7706,0.7706,0.7705,0.7739,0.7741,0.7743,0,0,0,0,0,0,0,0,0,0,0,0,0,0.7633,0.76,0.7675,0.7678,0.7678,0.7711,0.7712,0.7712,0.7707,0.7706,0.7705,0.7705,0.7739,0.7741,0.7743,0.7774,0,0,0.775,0.7751,0,0,0,0,0,0,0,0,0.7631,0.7635,0.7677,0.7678,0.7678,0.7704,0.7697,0.7733,0.7707,0.7696,0.7705,0.7704,0.7728,0.7731,0.774,0.7776,0.7777,0.775,0.7751,0.7752,0.7753,0,0,0,0,0,0,0,0.7628,0.7634,0.7689,0.7678,0.7678,0.7676,0.768,0.7704,0.7717,0.7697,0.7697,0.7701,0.7728,0.7738,0.7741,0.7778,0.775,0.7752,0.7753,0.7754,0.7839,0.784,0,0,0,0,0,0,0.7626,0.7632,0.7688,0.769,0.7652,0.7678,0.7682,0.7696,0.7716,0.7719,0.7702,0.7701,0.7734,0.7738,0.7742,0.7778,0.7752,0.7754,0.7756,0.7838,0.7839,0.784,0,0,0,0,0,0,0.7624,0.7631,0.7687,0.7661,0.7668,0.768,0.7696,0.7698,0.7707,0.772,0.7722,0.7709,0.7734,0.7739,0.7766,0.7779,0.7755,0.7757,0.7837,0.7838,0.7839,0.7852,0,0,0,0,0,0,0.7622,0.763,0.7643,0.7661,0.7669,0.7711,0.7697,0.7699,0.7711,0.771,0.7728,0.773,0.7734,0.7763,0.7768,0.7782,0.7759,0.7836,0.7837,0.7839,0.785,0.7853,0.7856,0,0,0,0,0,0.7619,0.7645,0.7644,0.7651,0.7686,0.7712,0.7716,0.7721,0.7712,0.7724,0.7733,0.7729,0.7777,0.7765,0.7772,0.7786,0.7835,0.7837,0.7839,0.7849,0.7853,0.7856,0,0,0,0,0,0,0.7628,0.7648,0.7647,0.768,0.7694,0.7711,0.7727,0.7726,0.7742,0.7741,0.7745,0.7749,0.7776,0.7784,0.7771,0.7816,0.7804,0.7808,0.781,0.7814,0.7817,0.7814,0.7761,0,0,0,0,0,0.7634,0.7654,0.767,0.7698,0.7705,0.7715,0.7726,0.7729,0.7744,0.7749,0.776,0.7774,0.7791,0.7803,0.7821,0.7852,0.7854,0.7864,0.7867,0.787,0.7872,0.7887,0.7891,0.7847,0.7847,0.7847,0,0,0.7646,0.7659,0.7672,0.77,0.7711,0.7731,0.772,0.7742,0.7756,0.7753,0.7778,0.7786,0.7802,0.783,0.7843,0.7838,0.7885,0.7872,0.7874,0.7875,0.7889,0.7894,0.7897,0.7848,0.7848,0.7848,0,0,0.7678,0.7691,0.7714,0.7726,0.7744,0.775,0.7755,0.7772,0.7777,0.7804,0.7801,0.7817,0.7849,0.7859,0.7869,0.7903,0.7899,0.7908,0.7923,0.7938,0.7941,0.7944,0.7954,0.7958,0.7911,0.7911,0.7911,0,0.7691,0.7721,0.7726,0.7748,0.7759,0.7757,0.778,0.7791,0.7813,0.782,0.7814,0.7852,0.7863,0.7892,0.79,0.7909,0.7914,0.7906,0.794,0.7943,0.7946,0.7956,0.796,0.7912,0.7912,0.7912,0.7912,0,0.7734,0.7755,0.7772,0.7793,0.7807,0.7829,0.7836,0.7848,0.7849,0.7855,0.7881,0.7893,0.7912,0.792,0.7921,0.7949,0.7945,0.7939,0.7927,0.7951,0.796,0.7964,0.7913,0.7913,0.7912,0.7912,0,0,0.7773,0.7796,0.7802,0.7811,0.783,0.7845,0.7866,0.7885,0.7895,0.791,0.7926,0.7952,0.7947,0.7958,0.796,0.7972,0.7996,0.7965,0.7965,0.7969,0.8025,0.8028,0.8033,0.7994,0.7995,0.7995,0.8023,0,0.7805,0.7843,0.7848,0.7881,0.7899,0.7897,0.7915,0.7927,0.7933,0.7948,0.7955,0.7972,0.7965,0.7971,0.7984,0.799,0.8007,0.7989,0.8008,0.8008,0.8002,0.8038,0.8041,0.8067,0.8027,0.8028,0.8028,0,0.7848,0.7864,0.7899,0.7913,0.7921,0.7937,0.7954,0.7969,0.7982,0.7986,0.7997,0.7997,0.8017,0.8005,0.8031,0.8018,0.8026,0.8031,0.8032,0.8033,0.8019,0.8038,0.8076,0.8079,0.8034,0.8034,0.8034,0,0.787,0.7901,0.7925,0.7933,0.7951,0.7961,0.7969,0.7982,0.7992,0.8007,0.8013,0.8029,0.8038,0.805,0.8054,0.8045,0.8079,0.8068,0.8081,0.8081,0.8087,0.8087,0.8125,0.8095,0.8095,0.8095,0.8095,0,0.7905,0.7926,0.7935,0.7949,0.7972,0.7976,0.7998,0.8005,0.8016,0.8031,0.8031,0.8045,0.8049,0.8064,0.8067,0.8087,0.8091,0.8093,0.8093,0.8092,0.8092,0.8097,0.8095,0.8096,0.8096,0.8096,0.8095,0,0.7933,0.7941,0.7966,0.7981,0.7985,0.8001,0.8012,0.8026,0.8031,0.805,0.8054,0.8063,0.8079,0.8085,0.8105,0.8106,0.8129,0.8129,0.8125,0.8125,0.8137,0.8135,0.8179,0.8184,0.8152,0.8152,0.8152,0,0.7954,0.797,0.7986,0.7996,0.8004,0.8021,0.8031,0.8036,0.8046,0.8062,0.8073,0.8089,0.8103,0.8129,0.8136,0.8151,0.8149,0.8164,0.8152,0.8149,0.8147,0.8146,0.8147,0.8166,0.8166,0.8166,0.8166,0,0.799,0.7992,0.8008,0.8024,0.8036,0.8049,0.8062,0.807,0.8076,0.8088,0.8104,0.8115,0.8135,0.815,0.8165,0.8172,0.8169,0.817,0.8174,0.8172,0.8169,0.8169,0.8129,0.8169,0.8169,0.8169,0.8169,0.8168,0.8014,0.8027,0.804,0.8057,0.8066,0.8078,0.809,0.8097,0.8112,0.8128,0.813,0.8148,0.8159,0.8178,0.8186,0.8199,0.8195,0.82,0.8201,0.8202,0.8202,0.8168,0.8202,0.8202,0.8202,0.8202,0.8202,0,0.8048,0.8056,0.8071,0.8088,0.8101,0.8099,0.8112,0.8122,0.8138,0.8149,0.8162,0.818,0.8195,0.8203,0.8217,0.8226,0.8225,0.8229,0.8228,0.8229,0.8206,0.8201,0.823,0.823,0.823,0.823,0.823,0.823,0.8067,0.8089,0.8092,0.8118,0.8126,0.8143,0.8151,0.816,0.8169,0.8189,0.8202,0.8207,0.8216,0.8231,0.8244,0.8246,0.825,0.8255,0.8256,0.8234,0.8231,0.8228,0.8223,0.8256,0.8256,0.8278,0.8278,0.8278]},{"header":{"parameterUnit":"m.s-1","parameterCategory":1,"la1":30.2991,"la2":30.254,"lo1":-89.0895,"lo2":-89.0444,"dy":0.0017,"dx":0.0017,"nx":28,"ny":28,"refTime":"2025-03-21T21:00:00:Z","depth":0,"parameterNumber":3,"parameterNumberName":"V-component_of_WINDS"},"data":[0,0,0,0,0,0,0,0,0,0,0,0,0,0,0,0,0,0,0,0,0,0,0,0,0,0,0,0,0,0,0,0,0,0,0,0,0,0,0,0,0,0,0,0,0,0,0,0,0,0,0,0,0,0,0,0,0,0,4.1428,4.1429,0,4.152,4.1521,4.1522,4.1475,4.1472,4.147,4.1468,4.1556,4.156,4.1565,0,0,0,0,0,0,0,0,0,0,0,0,0,4.1205,4.121,4.1428,4.1429,4.143,4.1519,4.1521,4.1522,4.1475,4.1472,4.1469,4.1467,4.1554,4.1559,4.1565,0,0,0,0,0,0,0,0,0,0,0,0,0,4.13,4.1211,4.1428,4.1418,4.1418,4.1519,4.1521,4.1522,4.1476,4.1472,4.1469,4.1465,4.1552,4.1559,4.1566,4.168,0,0,4.1587,4.159,0,0,0,0,0,0,0,0,4.1294,4.1308,4.1418,4.1419,4.1419,4.1482,4.1474,4.1575,4.1477,4.1454,4.1468,4.1464,4.1534,4.1542,4.1567,4.1684,4.1688,4.1587,4.1591,4.1594,4.1596,0,0,0,0,0,0,0,4.1288,4.1304,4.1464,4.142,4.142,4.1406,4.1416,4.1493,4.1513,4.1455,4.1452,4.1464,4.1533,4.156,4.1568,4.1689,4.1587,4.1593,4.1597,4.16,4.19,4.1904,0,0,0,0,0,0,4.1283,4.1299,4.1461,4.1467,4.1347,4.1413,4.1424,4.1465,4.1512,4.1515,4.1467,4.1462,4.155,4.156,4.1571,4.1705,4.1594,4.1601,4.1605,4.1897,4.1901,4.1905,0,0,0,0,0,0,4.1278,4.1298,4.1457,4.1382,4.1401,4.1421,4.1468,4.1469,4.1496,4.1521,4.1523,4.1492,4.1548,4.1562,4.1653,4.1708,4.1604,4.161,4.1892,4.1898,4.1903,4.1976,0,0,0,0,0,0,4.1272,4.1297,4.1342,4.1383,4.1405,4.154,4.1472,4.1474,4.1509,4.1503,4.1544,4.1548,4.1546,4.1643,4.166,4.1715,4.1615,4.1887,4.1895,4.1901,4.1969,4.1984,4.1996,0,0,0,0,0,4.1264,4.1359,4.1345,4.1365,4.1463,4.1543,4.1556,4.1554,4.1514,4.1558,4.1573,4.1546,4.1699,4.1653,4.1671,4.173,4.1884,4.1893,4.1901,4.1963,4.1981,4.1996,0,0,0,0,0,0,4.1322,4.1364,4.1349,4.146,4.1499,4.1535,4.1592,4.1574,4.1623,4.1615,4.1608,4.1618,4.1712,4.173,4.1677,4.184,4.1785,4.1798,4.1825,4.1843,4.1856,4.1849,4.1621,0,0,0,0,0,4.1348,4.1412,4.1444,4.1539,4.1559,4.1572,4.1607,4.1602,4.1641,4.1656,4.1678,4.1715,4.1771,4.1808,4.1861,4.1971,4.1978,4.202,4.2034,4.2045,4.2056,4.2112,4.213,4.1934,4.1934,4.1934,0,0,4.1402,4.1432,4.1473,4.1551,4.158,4.1643,4.1586,4.1656,4.1702,4.1666,4.1754,4.1771,4.1811,4.1911,4.1957,4.1929,4.2112,4.2057,4.2065,4.207,4.2123,4.2141,4.2158,4.194,4.1939,4.1938,0,0,4.1531,4.1563,4.1643,4.1674,4.1719,4.1727,4.1746,4.1786,4.1796,4.1884,4.1857,4.191,4.2008,4.2037,4.2064,4.2202,4.2178,4.222,4.2291,4.2345,4.2361,4.2374,4.242,4.2437,4.223,4.2231,4.2231,0,4.1592,4.1689,4.1687,4.1758,4.1792,4.1764,4.1843,4.1872,4.1932,4.1954,4.1923,4.2043,4.2069,4.2173,4.2207,4.2231,4.225,4.2214,4.2359,4.2373,4.2385,4.2429,4.2447,4.2235,4.2235,4.2234,4.2234,0,4.1759,4.1826,4.1885,4.1944,4.1985,4.206,4.2066,4.2107,4.2098,4.2108,4.2195,4.2225,4.2282,4.2307,4.2299,4.241,4.2391,4.236,4.2303,4.2409,4.2449,4.2466,4.2242,4.224,4.2239,4.2237,0,0,4.1928,4.1984,4.2006,4.2031,4.2078,4.2128,4.22,4.2258,4.2291,4.2332,4.239,4.2473,4.2443,4.2475,4.2469,4.2517,4.262,4.248,4.248,4.2503,4.2741,4.2762,4.2782,4.2605,4.2609,4.2611,4.2736,0,4.2059,4.2188,4.2187,4.2304,4.2364,4.2337,4.2399,4.2433,4.2444,4.2494,4.2505,4.2562,4.2521,4.2539,4.2586,4.2598,4.2668,4.2589,4.2656,4.2659,4.2645,4.2804,4.2828,4.2944,4.2753,4.2755,4.2757,0,4.2229,4.2277,4.2401,4.2436,4.2461,4.2518,4.2568,4.2617,4.2654,4.2658,4.2692,4.2678,4.2748,4.2691,4.2785,4.2732,4.2759,4.2769,4.2773,4.2777,4.2713,4.281,4.2982,4.2998,4.2783,4.2781,4.2779,0,4.2336,4.2431,4.2517,4.254,4.2584,4.2624,4.2643,4.2676,4.271,4.2753,4.2774,4.2825,4.2852,4.289,4.2889,4.2848,4.2983,4.2927,4.2986,4.2986,4.3014,4.3012,4.319,4.3036,4.3036,4.3035,4.3035,0,4.2481,4.2557,4.2565,4.2618,4.2701,4.2698,4.278,4.2795,4.2824,4.2877,4.2857,4.2906,4.2903,4.2952,4.2951,4.3027,4.304,4.3043,4.3042,4.3044,4.3043,4.306,4.3051,4.304,4.3039,4.3038,4.3037,0,4.2615,4.2624,4.2715,4.2749,4.2759,4.2819,4.2846,4.2894,4.2903,4.297,4.2985,4.2997,4.3054,4.3057,4.3122,4.3121,4.3213,4.3204,4.3201,4.3199,4.3257,4.325,4.345,4.3475,4.3306,4.3308,4.3309,0,4.2706,4.2764,4.2804,4.2838,4.2861,4.2917,4.2951,4.2949,4.2984,4.3028,4.307,4.3125,4.3169,4.3259,4.3272,4.3321,4.3311,4.3378,4.3318,4.3318,4.3309,4.3305,4.3309,4.3389,4.3391,4.3392,4.3394,0,4.2865,4.2866,4.2917,4.2969,4.301,4.305,4.3087,4.3116,4.3118,4.3158,4.3216,4.325,4.3316,4.3369,4.3416,4.3433,4.3413,4.3412,4.3428,4.343,4.3425,4.3426,4.323,4.3407,4.3406,4.3405,4.3404,4.3404,4.2979,4.3028,4.3063,4.3119,4.3147,4.3182,4.3228,4.3242,4.3291,4.3345,4.334,4.3404,4.3435,4.3496,4.3517,4.3565,4.3541,4.3565,4.3571,4.3576,4.3581,4.3419,4.3573,4.3573,4.3573,4.3572,4.3572,0,4.3135,4.3156,4.3208,4.326,4.3304,4.3282,4.3322,4.3358,4.3415,4.3447,4.349,4.3555,4.3606,4.3623,4.3671,4.3706,4.3697,4.3718,4.3715,4.3718,4.36,4.358,4.3724,4.3724,4.3724,4.3724,4.3724,4.3724,4.3221,4.3302,4.3307,4.34,4.3419,4.3483,4.3506,4.3537,4.3562,4.3636,4.3678,4.369,4.3714,4.3764,4.3809,4.3812,4.383,4.3854,4.3854,4.3742,4.3727,4.3712,4.3694,4.3859,4.3859,4.3967,4.3968,4.3969]}]]